Regional Weather Roundup
Issued by NWS Jackson, KY

Home | Current Version | Previous Version | Text Only | Print | Product List | Glossary Off
Versions: 1 2 3 4 5 6 7 8 9 10 11 12 13 14 15 16 17 18 19 20 21 22 23 24 25 26 27 28 29 30 31 32 33 34 35 36 37 38 39 40 41 42 43 44 45 46 47 48 49 50

000
ASUS43 KJKL 191711
RWRJKL

EAST KENTUCKY HOURLY WEATHER ROUNDUP
NATIONAL WEATHER SERVICE JACKSON KY
1200 PM EST FRI DEC 19 2014

NOTE: "FAIR" INDICATES FEW OR NO CLOUDS BELOW 12,000 FEET WITH
NO SIGNIFICANT WEATHER AND/OR OBSTRUCTIONS TO VISIBILITY.

* THESE REPORTS ARE NOT UNDER NWS QUALITY CONTROL AND MAY NOT
  REPORT WEATHER SUCH AS PRECIPITATION AND FOG.

KYZ079-080-083-085-087-088-110-112-115-119-120-191800
...EASTERN KENTUCKY...

CITY           SKY/WX    TMP DP  RH WIND       PRES   REMARKS
JACKSON        SUNNY     36  24  62 NE3       30.23F
LONDON         PTSUNNY   37  25  61 MISG      30.23F
SOMERSET*      MOSUNNY   34  27  75 CALM      30.27F
MONTICELLO*    PTSUNNY   37  26  65 CALM      30.28F
MIDDLESBORO*   PTSUNNY   40  27  58 CALM      30.22F
HARLAN APT*    MOSUNNY   37  27  65 CALM      30.20F
HAZARD APT*    PTSUNNY   36  27  69 CALM      30.23F
BLACK MTN*       N/A     30  23  74 CALM        N/A
PIKEVILLE APT* CLOUDY    32  23  69 CALM      30.22F
BIG SANDY*     CLOUDY    32  24  72 CALM      30.24F
MOREHEAD APT*  CLOUDY    30  21  69 VRB3      30.28F
$$

KYZ035-036-041-042-044-050-067-078-099-191800
...CENTRAL KENTUCKY...

CITY           SKY/WX    TMP DP  RH WIND       PRES   REMARKS
MT STERLING*   CLOUDY    32  23  69 E3        30.28F
FLEMING/MASON* CLOUDY    28  21  74 SE3       30.28F
DANVILLE*      MOSUNNY   32  25  74 CALM      30.28S
RICHMOND*      PTSUNNY   32  23  69 NW3       30.26S
LEXINGTON      PTSUNNY   31  22  69 VRB3      30.28S
FRANKFORT      CLOUDY    30  21  69 N5        30.28F WCI  25
$$

KYZ091>093-OHZ055-061-077-WVZ005-015-034-035-042-191800
...SOUTHERN OHIO/WEST VIRGINIA...

CITY           SKY/WX    TMP DP  RH WIND       PRES   REMARKS
COVINGTON      CLOUDY    29  19  66 VRB3      30.27F
COLUMBUS       CLOUDY    29  23  78 CALM      30.26F HAZE
DAYTON         CLOUDY    29  22  75 VRB3      30.28F
WILMINGTON     CLOUDY    30  21  69 N3        30.25F
HUNTINGTON     CLOUDY    30  22  72 CALM      30.26F
CHARLESTON     CLOUDY    30  21  69 CALM      30.25F
PINEVILLE*     CLOUDY    34  28  78 MISG      30.24F
BECKLEY        CLOUDY    28  20  71 W7        30.15F WCI  21
BLUEFIELD      MOSUNNY   33  22  63 CALM      30.13F
$$

VAZ002-007-008-TNZ017-027-036-066-071-191800
...SOUTHWEST VIRGINIA/EAST TENNESSEE...

CITY           SKY/WX    TMP DP  RH WIND       PRES   REMARKS
WISE*          MOSUNNY   34  25  69 CALM      30.16S
JONESVILLE*    MOSUNNY   41  23  48 CALM      30.21F
ABINGDON*      PTSUNNY   41  20  41 W5        30.16F
BRISTOL        PTSUNNY   44  23  43 CALM      30.18F
KNOXVILLE      CLOUDY    42  25  50 N5        30.20F
OAK RIDGE      PTSUNNY   43  22  43 VRB3      30.22F
CROSSVILLE     CLOUDY    37  25  61 VRB5      30.20F WCI  33
NASHVILLE      CLOUDY    38  28  67 VRB6      30.29S WCI  33
$$

...KEY TO REMARKS...
VSB - VISIBILITY IN MILES
WCI - WIND CHILL INDEX
HX  - HEAT INDEX

$$



USA.gov is the U.S. government's official web portal to all federal, state and local government web resources and services.